tititudorancea.com
Station Historical Data
Daily Summary for February 8, 2019 Units:  Metric    English   Both
« Previous Day
Next Day »
Daily Weekly Monthly Yearly Custom
  High: Low: Average:
Temperature: -17.8 °C 13.1 °C 16.4 °C
Dew Point: -17.8 °C 7.3 °C 11.6 °C
Humidity: Humidity % 45 % 74 %
Wind Speed: 0 km/h 0 km/h 17.7 km/h
Wind Gust: 0 km/h - -
Wind:- - WSW
Pressure: 0 hPa 1002.9 hPa -
Precipitation: 0 mm    
Historical Graphs
 
 
Ararat weather Find more about Weather in Ararat, AU


 



 


Tabular Data for February 8, 2019
Time Temperature Dew Point Pressure Wind Wind Speed Wind Gust Humidity Rainfall Rate (Hourly)
-17.8 °C -17.8 °C 0 hPa Calm     Humidity % 0 mm
00:04 17.1 °C 14.6 °C 1008.7 hPa SSE 18.5 km/h 9.5 km/h 85 % 0 mm
00:09 17.1 °C 14.6 °C 1008.7 hPa SSE 17.7 km/h 11.9 km/h 85 % 0 mm
00:14 17.1 °C 14.6 °C 1008.7 hPa North 18.5 km/h 13.2 km/h 85 % 0 mm
00:19 17.1 °C 14.7 °C 1008.4 hPa South 18.5 km/h 13 km/h 86 % 0 mm
00:24 17.1 °C 14.7 °C 1008.4 hPa North 18.5 km/h 11.1 km/h 86 % 0 mm
00:29 17 °C 14.7 °C 1008.4 hPa SSE 16.7 km/h 12.1 km/h 86 % 0 mm
00:34 17 °C 14.7 °C 1008.4 hPa South 13 km/h 8.4 km/h 86 % 0 mm
00:39 16.9 °C 14.6 °C 1008.4 hPa South 13 km/h 9.3 km/h 86 % 0 mm
00:44 16.9 °C 14.6 °C 1008.4 hPa North 13 km/h 11.3 km/h 86 % 0 mm
00:49 17 °C 14.7 °C 1008 hPa South 13 km/h 9.7 km/h 86 % 0 mm
00:54 17 °C 14.7 °C 1008 hPa North 16.7 km/h 9.5 km/h 86 % 0 mm
00:59 17 °C 14.7 °C 1008 hPa South 14.8 km/h 12.2 km/h 86 % 0 mm
01:04 17.1 °C 14.7 °C 1008 hPa South 16.7 km/h 14 km/h 86 % 0 mm
01:09 17.1 °C 14.7 °C 1008 hPa North 18.5 km/h 12.7 km/h 86 % 0 mm
01:14 17.1 °C 14.7 °C 1008 hPa South 16.7 km/h 10.5 km/h 86 % 0 mm
01:19 17 °C 14.7 °C 1008 hPa South 16.7 km/h 6.1 km/h 86 % 0 mm
01:24 17 °C 14.7 °C 1008 hPa North 18.5 km/h 6.9 km/h 86 % 0 mm
01:29 16.9 °C 14.6 °C 1008 hPa North 18.5 km/h 8 km/h 86 % 0 mm
01:34 16.9 °C 14.6 °C 1008 hPa South 18.5 km/h 10.3 km/h 86 % 0 mm
01:39 16.9 °C 14.3 °C 1008 hPa South 16.7 km/h 11.7 km/h 85 % 0 mm
01:44 16.9 °C 14.3 °C 1008 hPa North 18.5 km/h 9.7 km/h 85 % 0 mm
01:49 16.9 °C 14.2 °C 1007.7 hPa South 9.3 km/h 6.3 km/h 84 % 0 mm
01:54 16.9 °C 14.2 °C 1007.7 hPa South 11.3 km/h 11.1 km/h 84 % 0 mm
01:59 17 °C 14.3 °C 1007.7 hPa North 18.5 km/h 10 km/h 84 % 0 mm
02:04 17.1 °C 14.3 °C 1007.7 hPa North 19.3 km/h 15.8 km/h 84 % 0 mm
02:09 17 °C 14.3 °C 1007.7 hPa South 20.4 km/h 9.3 km/h 84 % 0 mm
02:14 17 °C 14.3 °C 1007.7 hPa North 13 km/h 11.7 km/h 84 % 0 mm
02:19 16.9 °C 14.4 °C 1007.7 hPa North 16.1 km/h 8.4 km/h 85 % 0 mm
02:24 16.9 °C 14.3 °C 1007.7 hPa South 18.5 km/h 9.2 km/h 85 % 0 mm
02:29 16.9 °C 14.3 °C 1007.7 hPa South 18.5 km/h 10.3 km/h 85 % 0 mm
02:34 16.9 °C 14.3 °C 1007.3 hPa South 13 km/h 11.1 km/h 85 % 0 mm
02:39 16.9 °C 14.3 °C 1007.7 hPa North 14.8 km/h 7.1 km/h 85 % 0 mm
02:44 16.9 °C 14.4 °C 1007.3 hPa South 9.3 km/h 5.5 km/h 85 % 0 mm
02:49 16.9 °C 14.6 °C 1007.3 hPa North 11.1 km/h 8.7 km/h 86 % 0 mm
02:54 16.9 °C 14.6 °C 1007.3 hPa South 18.5 km/h 11.6 km/h 86 % 0 mm
02:59 16.8 °C 14.5 °C 1007.3 hPa South 13 km/h 11.9 km/h 86 % 0 mm
03:04 16.8 °C 14.4 °C 1007.3 hPa South 14.8 km/h 7.1 km/h 86 % 0 mm
03:09 16.8 °C 14.4 °C 1007.3 hPa North 14.8 km/h 8.7 km/h 86 % 0 mm
03:14 16.8 °C 14.4 °C 1007.3 hPa South 18.5 km/h 7.6 km/h 86 % 0 mm
03:19 16.7 °C 14.6 °C 1007.3 hPa South 13 km/h 11.4 km/h 87 % 0 mm
03:24 16.7 °C 14.5 °C 1007.3 hPa South 17.7 km/h 11.4 km/h 87 % 0 mm
03:29 16.7 °C 14.5 °C 1007.3 hPa South 16.7 km/h 10 km/h 87 % 0 mm
03:34 16.7 °C 14.7 °C 1007.3 hPa South 16.7 km/h 10.3 km/h 88 % 0 mm
03:39 16.7 °C 14.7 °C 1007.3 hPa South 11.1 km/h 4.8 km/h 88 % 0 mm
03:44 16.7 °C 14.7 °C 1007.3 hPa South 20.4 km/h 13.8 km/h 88 % 0 mm
03:49 16.7 °C 14.7 °C 1007.3 hPa North 16.7 km/h 7.4 km/h 88 % 0 mm
03:54 16.6 °C 14.6 °C 1007.3 hPa SSW 16.7 km/h 11.6 km/h 88 % 0 mm
03:59 16.5 °C 14.3 °C 1007.3 hPa South 25.9 km/h 11.4 km/h 87 % 0 mm
04:04 16.4 °C 14.4 °C 1007.3 hPa South 14.8 km/h 8.5 km/h 88 % 0 mm
04:09 16.4 °C 14.4 °C 1007.3 hPa North 14.5 km/h 7.6 km/h 88 % 0 mm
04:14 16.4 °C 14.4 °C 1007.3 hPa North 16.7 km/h 10.3 km/h 88 % 0 mm
04:19 16.3 °C 14.3 °C 1007.3 hPa SSW 16.7 km/h 12.1 km/h 88 % 0 mm
04:24 16.3 °C 14.3 °C 1007.3 hPa SSW 16.7 km/h 8.5 km/h 88 % 0 mm
04:29 16.2 °C 14.2 °C 1007.3 hPa South 24.1 km/h 18.2 km/h 88 % 0 mm
04:34 15.8 °C 14 °C 1007.3 hPa SSW 29.6 km/h 15.6 km/h 89 % 0 mm
04:39 15.7 °C 13.8 °C 1007.3 hPa SSW 18.5 km/h 12.9 km/h 89 % 0 mm
04:44 15.6 °C 14 °C 1007.3 hPa SSW 18.5 km/h 8.9 km/h 90 % 0 mm
04:49 15.5 °C 13.9 °C 1007.3 hPa SSW 14.8 km/h 8.5 km/h 90 % 0 mm
04:54 15.5 °C 13.9 °C 1007.3 hPa SSW 18.5 km/h 9.8 km/h 90 % 0 mm
04:59 15.5 °C 13.9 °C 1007.3 hPa SSW 16.7 km/h 13.7 km/h 90 % 0 mm
05:04 15.5 °C 13.9 °C 1007 hPa North 20.4 km/h 11.4 km/h 90 % 0 mm
05:09 15.4 °C 13.8 °C 1007 hPa North 16.7 km/h 9 km/h 90 % 0 mm
05:14 15.4 °C 13.6 °C 1007 hPa North 18.5 km/h 10.3 km/h 89 % 0 mm
05:19 15.5 °C 13.7 °C 1007 hPa South 14.8 km/h 7.6 km/h 89 % 0 mm
05:24 15.6 °C 13.8 °C 1007 hPa North 18.5 km/h 9.3 km/h 89 % 0 mm
05:29 15.7 °C 13.7 °C 1007 hPa SSW 11.1 km/h 11.6 km/h 88 % 0 mm
05:34 15.7 °C 13.7 °C 1007 hPa SSW 13 km/h 8 km/h 88 % 0 mm
05:39 15.7 °C 13.7 °C 1007 hPa North 9.3 km/h 7.4 km/h 88 % 0 mm
05:44 15.7 °C 13.7 °C 1007 hPa SSW 7.4 km/h 7.7 km/h 88 % 0 mm
05:49 15.7 °C 13.7 °C 1007 hPa SSW 17.7 km/h 12.7 km/h 88 % 0 mm
05:54 15.6 °C 13.6 °C 1007 hPa North 17.7 km/h 12.4 km/h 88 % 0 mm
05:59 15.6 °C 13.6 °C 1007 hPa SSW 13 km/h 7.2 km/h 88 % 0 mm
06:04 15.6 °C 13.6 °C 1007 hPa North 13 km/h 6.6 km/h 88 % 0 mm
06:09 15.6 °C 13.6 °C 1007 hPa SSW 18.5 km/h 11.6 km/h 88 % 0 mm
06:14 15.6 °C 13.6 °C 1007 hPa North 18.5 km/h 12.1 km/h 88 % 0 mm
06:19 15.4 °C 13.4 °C 1007 hPa North 16.7 km/h 9.5 km/h 88 % 0 mm
06:24 15.4 °C 13.4 °C 1007 hPa North 11.1 km/h 4.7 km/h 88 % 0 mm
06:29 15.3 °C 13.3 °C 1007 hPa North 7.4 km/h 4.8 km/h 88 % 0 mm
06:34 15.2 °C 13.4 °C 1007 hPa SSW 9.3 km/h 7.4 km/h 89 % 0 mm
06:39 15.1 °C 13.1 °C 1007 hPa SSW 18.5 km/h 12.2 km/h 88 % 0 mm
06:44 15.1 °C 13.1 °C 1007 hPa North 24.1 km/h 14.5 km/h 88 % 0 mm
06:49 15.1 °C 13.1 °C 1007.3 hPa North 16.7 km/h 10.8 km/h 88 % 0 mm
06:54 15.1 °C 13.1 °C 1007.3 hPa SSW 16.7 km/h 8.5 km/h 88 % 0 mm
06:59 15 °C 13 °C 1007.3 hPa North 13 km/h 7.1 km/h 88 % 0 mm
07:04 15 °C 13 °C 1007.3 hPa SSW 13 km/h 7.1 km/h 88 % 0 mm
07:09 14.9 °C 13 °C 1007.3 hPa North 11.1 km/h 9 km/h 88 % 0 mm
07:14 14.9 °C 12.9 °C 1007.3 hPa North 12.9 km/h 9.8 km/h 88 % 0 mm
07:19 14.9 °C 12.9 °C 1007.3 hPa SSW 18.5 km/h 11.1 km/h 88 % 0 mm
07:24 14.8 °C 12.9 °C 1007.3 hPa North 14.8 km/h 9.5 km/h 88 % 0 mm
07:29 14.8 °C 12.9 °C 1007.3 hPa SSW 14.8 km/h 6.8 km/h 88 % 0 mm
07:34 14.8 °C 12.9 °C 1007.7 hPa South 13 km/h 8.7 km/h 88 % 0 mm
07:39 14.9 °C 12.9 °C 1007.7 hPa SSW 16.1 km/h 10.9 km/h 88 % 0 mm
07:44 14.9 °C 12.9 °C 1007.3 hPa South 16.1 km/h 9.8 km/h 88 % 0 mm
07:49 14.9 °C 13 °C 1007.3 hPa South 14.8 km/h 8.5 km/h 88 % 0 mm
07:54 14.9 °C 13 °C 1007.3 hPa North 14.8 km/h 10.3 km/h 88 % 0 mm
07:59 15.1 °C 12.9 °C 1007.7 hPa North 22.2 km/h 14.5 km/h 87 % 0 mm
08:04 15.1 °C 12.8 °C 1007.7 hPa SSW 20.9 km/h 16.6 km/h 86 % 0 mm
08:09 15.1 °C 12.8 °C 1007.3 hPa SSW 18.5 km/h 11.6 km/h 86 % 0 mm
08:14 15.2 °C 12.9 °C 1007.3 hPa North 13 km/h 5.1 km/h 86 % 0 mm
08:19 15.2 °C 12.8 °C 1007.7 hPa North 22.2 km/h 15.4 km/h 86 % 0 mm
08:24 15.2 °C 12.9 °C 1007.7 hPa SSW 25.7 km/h 10.6 km/h 86 % 0 mm
08:29 15.3 °C 12.7 °C 1007.7 hPa SSW 24.1 km/h 17.5 km/h 84 % 0 mm
08:34 15.3 °C 12.4 °C 1007.7 hPa North 18.5 km/h 12.2 km/h 83 % 0 mm
08:39 15.2 °C 11.7 °C 1007.7 hPa SSW 25.9 km/h 15.6 km/h 80 % 0 mm
08:44 15.2 °C 11.6 °C 1007.7 hPa North 29.6 km/h 29.6 km/h 79 % 0 mm
08:49 15.5 °C 11.7 °C 1008 hPa SW 18.5 km/h 13.7 km/h 78 % 0 mm
08:54 15.8 °C 11.6 °C 1008 hPa SSW 18.5 km/h 14.8 km/h 76 % 0 mm
08:59 16.1 °C 11.5 °C 1008 hPa SSW 20.4 km/h 12.7 km/h 74 % 0 mm
09:04 16.4 °C 11.6 °C 1008 hPa SW 27.4 km/h 18.2 km/h 73 % 0 mm
09:09 16.3 °C 11.3 °C 1008.4 hPa SW 25.9 km/h 13.5 km/h 72 % 0 mm
09:14 16.3 °C 11.2 °C 1008.4 hPa SSW 14.8 km/h 12.6 km/h 72 % 0 mm
09:19 16.3 °C 11.1 °C 1008.4 hPa SSW 25.9 km/h 13.4 km/h 71 % 0 mm
09:24 16.5 °C 11.2 °C 1008.4 hPa SSW 25.9 km/h 16.4 km/h 71 % 0 mm
09:29 16.4 °C 10.7 °C 1008.4 hPa South 20.4 km/h 19.6 km/h 69 % 0 mm
09:34 16.3 °C 10.3 °C 1008 hPa South 25.9 km/h 16.9 km/h 68 % 0 mm
09:39 16.4 °C 10.4 °C 1008 hPa North 18.5 km/h 15.3 km/h 68 % 0 mm
09:44 16.8 °C 10.2 °C 1008 hPa SSW 24.1 km/h 19.5 km/h 65 % 0 mm
09:49 16.9 °C 10.1 °C 1008 hPa SSW 31.5 km/h 21.1 km/h 64 % 0 mm
09:54 17.1 °C 9.9 °C 1008 hPa North 22.2 km/h 15.8 km/h 63 % 0 mm
09:59 17.1 °C 9.8 °C 1008 hPa SW 25.9 km/h 18 km/h 62 % 0 mm
10:04 17.4 °C 10.5 °C 1008 hPa SW 16.7 km/h 12.7 km/h 64 % 0 mm
10:09 17.6 °C 10.2 °C 1008 hPa SW 29.6 km/h 21.1 km/h 62 % 0 mm
10:13 17.7 °C 10.3 °C 1008 hPa South 24.1 km/h 10.9 km/h 62 % 0 mm
17:59 22.1 °C 9.6 °C 1003.3 hPa SSW 29.6 km/h 20.6 km/h 45 % 0 mm
18:04 22.1 °C 9.9 °C 1003.3 hPa SSW 24.1 km/h 18.3 km/h 46 % 0 mm
18:09 22.2 °C 9.7 °C 1003.3 hPa SW 16.7 km/h 11.1 km/h 45 % 0 mm
18:14 22.3 °C 9.8 °C 1003.3 hPa SSW 18.5 km/h 9.5 km/h 45 % 0 mm
18:19 21.9 °C 9.4 °C 1002.9 hPa SW 22.2 km/h 18.5 km/h 45 % 0 mm
18:24 21.9 °C 9.4 °C 1003.3 hPa SW 18.5 km/h 17.9 km/h 45 % 0 mm
18:29 21.5 °C 9.4 °C 1003.3 hPa SW 24.1 km/h 17.4 km/h 46 % 0 mm
18:34 21.3 °C 9.5 °C 1003.3 hPa SSW 22.5 km/h 16.7 km/h 47 % 0 mm
18:39 21.2 °C 9.7 °C 1003.3 hPa SSW 29.6 km/h 16.3 km/h 48 % 0 mm
18:44 21.1 °C 9.7 °C 1002.9 hPa SW 22.5 km/h 16.3 km/h 48 % 0 mm
18:49 21.3 °C 9.5 °C 1003.3 hPa North 25.9 km/h 27.5 km/h 47 % 0 mm
18:54 21.3 °C 9.6 °C 1002.9 hPa SW 18.5 km/h 16.6 km/h 47 % 0 mm
18:59 21.2 °C 9.4 °C 1003.3 hPa SSW 29.6 km/h 22.9 km/h 47 % 0 mm
19:04 20.7 °C 9.6 °C 1003.3 hPa North 27.8 km/h 22.5 km/h 49 % 0 mm
19:09 20.3 °C 9.8 °C 1003.3 hPa South 18.5 km/h 12.1 km/h 51 % 0 mm
19:14 20.2 °C 9.4 °C 1003.3 hPa SW 24.1 km/h 17.7 km/h 50 % 0 mm
19:19 19.9 °C 9.2 °C 1003.3 hPa SW 29.6 km/h 19.3 km/h 50 % 0 mm
19:24 19.8 °C 9.4 °C 1003.3 hPa South 22.5 km/h 18.5 km/h 51 % 0 mm
19:29 19.9 °C 9.4 °C 1003.3 hPa SSW 25.9 km/h 15.6 km/h 51 % 0 mm
19:34 19.7 °C 9.3 °C 1003.3 hPa SSW 25.7 km/h 18.8 km/h 51 % 0 mm
19:39 19.4 °C 9.3 °C 1003.3 hPa SSW 27.8 km/h 12.9 km/h 52 % 0 mm
19:44 19.4 °C 9.3 °C 1003.3 hPa SSW 33.3 km/h 16.4 km/h 52 % 0 mm
19:49 19.4 °C 9.3 °C 1003.3 hPa SSW 20.9 km/h 16.6 km/h 52 % 0 mm
19:54 19 °C 8.9 °C 1003.3 hPa SSW 25.9 km/h 19.3 km/h 52 % 0 mm
19:59 18.8 °C 9.1 °C 1003.6 hPa SW 24.1 km/h 21.1 km/h 53 % 0 mm
20:04 18.6 °C 9.1 °C 1003.6 hPa SSW 31.5 km/h 18.8 km/h 54 % 0 mm
20:09 18.4 °C 8.9 °C 1003.6 hPa North 31.5 km/h 22.4 km/h 54 % 0 mm
20:14 18.1 °C 9.2 °C 1003.6 hPa SW 25.9 km/h 14.2 km/h 56 % 0 mm
20:19 17.8 °C 9.2 °C 1003.9 hPa SSW 31.5 km/h 15 km/h 57 % 0 mm
20:24 17.6 °C 9.2 °C 1003.9 hPa SSW 24.1 km/h 13.4 km/h 58 % 0 mm
20:29 17.4 °C 9.3 °C 1003.9 hPa SSW 19.3 km/h 15.8 km/h 59 % 0 mm
20:34 17.2 °C 9.4 °C 1003.9 hPa SSW 20.4 km/h 14.2 km/h 60 % 0 mm
20:39 17.1 °C 9.3 °C 1003.9 hPa SSW 20.4 km/h 17.2 km/h 60 % 0 mm
20:44 16.9 °C 9.4 °C 1003.9 hPa SSW 18.5 km/h 12.4 km/h 61 % 0 mm
20:49 16.8 °C 9.3 °C 1003.9 hPa North 11.3 km/h 8 km/h 61 % 0 mm
20:54 16.7 °C 9.2 °C 1003.9 hPa SW 14.8 km/h 8.9 km/h 61 % 0 mm
20:59 16.7 °C 9.1 °C 1003.9 hPa SSW 22.2 km/h 20.1 km/h 61 % 0 mm
21:04 16.6 °C 9 °C 1003.9 hPa SW 25.9 km/h 16.9 km/h 61 % 0 mm
21:09 16.4 °C 9.1 °C 1003.9 hPa SSW 24.1 km/h 9.7 km/h 62 % 0 mm
21:14 16.3 °C 9 °C 1003.9 hPa SW 22.2 km/h 17.1 km/h 62 % 0 mm
21:19 16.1 °C 8.8 °C 1003.9 hPa SSW 16.7 km/h 12.1 km/h 62 % 0 mm
21:24 15.9 °C 8.9 °C 1004.3 hPa SSW 22.2 km/h 14.6 km/h 63 % 0 mm
21:29 15.8 °C 8.8 °C 1004.3 hPa SSW 18.5 km/h 11.9 km/h 63 % 0 mm
21:34 15.7 °C 8.7 °C 1004.3 hPa SSW 25.9 km/h 12.1 km/h 63 % 0 mm
21:39 15.6 °C 8.6 °C 1004.3 hPa SSW 24.1 km/h 12.7 km/h 63 % 0 mm
21:44 15.5 °C 8.7 °C 1004.3 hPa SSW 14.8 km/h 6.9 km/h 64 % 0 mm
21:49 15.4 °C 8.6 °C 1004.3 hPa SSW 18.5 km/h 11.4 km/h 64 % 0 mm
21:54 15.3 °C 8.3 °C 1004.3 hPa SSW 18.5 km/h 10.1 km/h 63 % 0 mm
21:59 15.3 °C 8.3 °C 1004.3 hPa WSW 16.7 km/h 15.1 km/h 63 % 0 mm
22:04 15.2 °C 8.2 °C 1004.3 hPa SSW 9.3 km/h 4.3 km/h 63 % 0 mm
22:09 15.1 °C 8.1 °C 1004.6 hPa SSW 9.7 km/h 7.1 km/h 63 % 0 mm
22:14 15.1 °C 8.1 °C 1004.6 hPa SSW 7.4 km/h 6 km/h 63 % 0 mm
22:19 14.9 °C 8.2 °C 1004.6 hPa SSW 11.1 km/h 9.5 km/h 64 % 0 mm
22:24 14.9 °C 8.1 °C 1004.6 hPa SSW 9.7 km/h 6.4 km/h 64 % 0 mm
22:29 14.8 °C 8.1 °C 1004.6 hPa SSW 13 km/h 7.2 km/h 64 % 0 mm
22:34 14.7 °C 8 °C 1004.6 hPa SSW 20.4 km/h 9.7 km/h 64 % 0 mm
22:39 14.6 °C 8.1 °C 1004.6 hPa SSW 13 km/h 8.4 km/h 65 % 0 mm
22:44 14.5 °C 8 °C 1004.6 hPa SSW 18.5 km/h 7.9 km/h 65 % 0 mm
22:49 14.4 °C 7.9 °C 1004.6 hPa SSW 7.4 km/h 4 km/h 65 % 0 mm
22:54 14.3 °C 7.8 °C 1004.6 hPa SSW 9.7 km/h 8.2 km/h 65 % 0 mm
22:59 14.2 °C 7.9 °C 1004.6 hPa SSW 9.3 km/h 3.4 km/h 66 % 0 mm
23:04 14.1 °C 7.8 °C 1004.6 hPa SSW 11.1 km/h 6.3 km/h 66 % 0 mm
23:09 14 °C 7.7 °C 1004.3 hPa SSW 5.6 km/h 0.8 km/h 66 % 0 mm
23:14 13.9 °C 7.9 °C 1004.3 hPa SSW 1.9 km/h 0.6 km/h 67 % 0 mm
23:19 13.8 °C 7.8 °C 1004.3 hPa Calm     67 % 0 mm
23:24 13.6 °C 7.8 °C 1004.3 hPa Calm   0.2 km/h 68 % 0 mm
23:29 13.5 °C 7.7 °C 1004.3 hPa SSW 4.8 km/h 3.7 km/h 68 % 0 mm
23:34 13.4 °C 7.8 °C 1004.3 hPa SSW 1.9 km/h   69 % 0 mm
23:39 13.2 °C 7.9 °C 1004.3 hPa Calm     70 % 0 mm
23:44 13.1 °C 7.8 °C 1004.3 hPa SSW 6.4 km/h 2.3 km/h 70 % 0 mm
23:49 13.2 °C 7.6 °C 1004.3 hPa SSW 9.3 km/h 9.7 km/h 69 % 0 mm
23:54 13.4 °C 7.4 °C 1004.3 hPa North 7.4 km/h 3.4 km/h 67 % 0 mm
23:59 13.6 °C 7.3 °C 1004.3 hPa SSW 11.3 km/h 5.6 km/h 66 % 0 mm
Ararat Weather
Compliments of Weather Underground - 1.75 mb
Click here to send mail.


ABOUT

Live weather data from Ararat, Victoria, Australia, 3377
Data uploaded from Cumulus every 5 minutes to Weather Underground.
This site then downloads the raw data for formatting and display.
Metric and imperial data can be displayed. Graphs and historical data available.
Includes Sun and Moon times and rain image live from BOM.

Check out Ararat Weather on Facebook, Twitter and Google +

Help support ongoing costs by checking out the ads





Follow @AraratWeather